Wind_Speed
22 22 21 21 21 21 21 22 22 21 20 19 20 20 20 21 21 21 21 22 23 24 24 24 24 25 24 24 25 24 25 26 27 27 27 27 28 29 29 29 30 30 30 30
23 23 22 22 22 22 22 22 22 21 20 20 20 20 20 21 21 21 22 22 23 24 23 23 23 24 24 25 25 26 26 26 26 25 25 25 26 27 28 28 29 29 30 30
24 24 25 24 23 23 23 23 23 22 21 21 21 21 21 21 21 21 22 24 24 24 24 23 23 24 24 24 25 26 26 26 25 25 25 25 25 26 28 28 28 28 28 29
25 26 26 24 24 23 24 23 24 23 23 23 23 23 23 23 22 23 23 23 24 25 25 24 24 24 24 23 24 25 25 25 25 25 26 26 26 26 26 27 27 27 28 29
26 26 25 24 23 24 24 23 24 24 24 24 24 24 24 24 24 23 23 23 23 24 24 24 24 23 23 23 22 22 23 24 25 25 26 26 26 26 27 28 28 28 28 29
26 26 26 24 24 25 25 24 25 25 24 24 24 24 23 23 23 23 23 23 22 23 24 23 23 23 23 23 23 23 23 24 24 24 25 25 25 25 26 27 27 28 28 29
26 26 25 25 25 25 25 25 25 24 24 24 24 24 23 23 23 23 24 24 23 24 24 23 22 23 23 23 24 24 24 24 24 25 25 25 26 26 26 26 27 27 28 29
23 24 24 24 24 24 25 25 25 25 25 25 25 25 24 24 24 23 24 24 24 25 25 24 24 24 24 24 24 25 26 26 26 26 26 26 26 26 27 27 27 28 28 28
22 23 23 23 23 24 25 25 25 25 25 26 25 25 25 24 24 24 24 24 25 25 26 26 26 27 26 25 25 25 26 26 27 27 28 27 27 27 28 28 28 29 29 30
22 22 22 22 23 23 24 24 25 25 26 26 26 26 25 25 25 25 25 25 25 26 26 26 27 27 27 26 26 26 26 27 27 28 29 29 28 28 28 28 28 29 29 29
22 21 21 21 22 23 24 24 25 26 26 26 26 26 25 25 25 25 25 25 26 26 26 26 27 27 28 28 28 28 28 28 29 29 30 30 29 29 29 29 30 30 30 30
22 22 23 22 22 23 24 24 25 26 26 27 27 27 26 26 26 26 26 26 26 26 25 26 26 27 28 29 28 28 28 29 29 29 30 29 29 29 30 30 29 30 30 30
22 23 23 24 24 24 25 25 26 26 26 27 28 28 27 27 27 27 27 27 26 25 25 25 25 26 27 27 28 28 28 28 29 29 29 29 29 30 30 30 30 30 30 30
23 24 24 25 25 26 26 26 27 26 27 28 28 28 28 27 28 27 27 27 27 26 26 26 26 26 26 26 27 28 28 29 29 29 29 30 30 30 30 30 30 30 30 31
24 25 25 26 27 27 27 27 27 27 27 28 28 28 27 27 27 27 28 28 28 28 27 27 27 26 26 26 27 27 28 29 29 29 29 30 30 30 30 30 30 30 31 31
25 26 26 27 27 27 27 27 27 26 27 27 27 27 27 28 27 27 27 27 27 28 28 28 28 28 28 28 27 28 28 28 28 29 29 29 30 30 30 31 31 31 31 31
27 27 27 28 28 28 28 28 28 27 27 27 27 26 26 27 27 27 27 26 27 27 28 28 28 28 28 28 28 28 28 29 28 29 29 29 30 30 30 31 31 32 32 32
28 29 29 30 30 30 30 29 28 28 28 27 27 26 26 26 26 26 27 27 26 27 27 27 28 28 28 28 29 29 29 29 29 29 29 29 29 29 29 29 30 30 31 31
30 31 31 31 31 31 30 30 29 28 28 27 27 27 26 26 26 26 26 27 27 27 26 27 27 28 28 29 29 29 29 29 29 29 29 29 29 29 29 28 29 29 30 30
32 32 33 33 32 31 31 30 29 28 28 28 27 27 26 26 25 25 26 26 26 26 26 26 27 27 28 28 28 28 29 29 30 30 30 30 30 30 29 29 29 30 30 30
32 32 32 32 32 31 30 30 29 28 27 27 27 26 26 25 25 25 25 25 25 25 25 26 26 27 27 27 27 27 28 29 29 30 30 30 30 30 30 30 31 31 31 31
31 31 31 31 30 29 29 29 28 28 27 27 27 26 26 26 25 25 25 25 25 25 25 26 26 27 27 27 27 27 28 29 29 30 30 30 30 30 31 31 31 30 30 29
30 30 30 30 29 29 28 28 28 27 27 27 27 26 26 26 26 26 26 26 26 26 26 26 26 27 27 27 28 28 29 29 30 30 30 30 31 30 30 30 30 29 29 29
30 30 29 29 28 28 28 27 27 26 26 26 26 26 26 26 26 26 26 27 27 26 26 26 27 27 28 29 29 29 30 30 30 30 30 30 30 30 29 29 28 28 28 27
30 29 28 28 27 27 27 27 26 26 26 26 25 25 25 25 25 25 26 26 26 26 26 26 27 27 28 29 29 30 30 30 30 30 30 30 29 29 28 28 27 26 25 24
29 29 28 28 27 27 27 27 26 26 26 25 25 25 25 25 25 25 25 26 26 26 26 26 26 27 28 28 28 29 29 30 30 30 30 29 29 29 28 26 25 24 23 23
29 29 28 28 28 28 28 27 27 27 26 26 25 25 25 25 25 25 25 26 26 26 26 26 26 27 27 28 28 28 28 28 29 29 29 28 28 27 26 25 23 22 22 21
Wind_Direction
293 294 295 295 292 291 293 295 294 294 293 293 293 293 289 285 282 280 280 278 276 277 279 277 276 271 269 268 266 266 268 268 270 269 266 265 262 258 259 261 261 262 264 266
288 288 290 291 291 290 292 294 294 293 293 293 293 292 290 287 283 282 280 280 281 280 280 278 277 273 270 269 267 267 269 270 271 268 266 264 262 261 260 261 263 265 265 266
287 286 285 289 292 291 292 294 294 294 294 292 290 291 291 289 287 283 281 283 281 282 281 281 278 274 272 270 269 270 271 269 269 268 265 263 264 264 264 264 264 266 268 268
288 288 288 293 291 291 291 292 292 292 290 290 288 288 289 288 286 283 283 283 280 280 281 279 277 274 274 272 271 270 268 266 267 266 265 265 266 266 266 267 267 267 270 271
288 290 290 291 292 291 291 291 291 291 288 286 286 287 286 285 283 283 283 283 283 282 281 279 277 275 275 273 272 272 271 268 267 265 264 265 266 266 266 267 268 270 272 271
288 289 292 292 291 290 291 292 292 290 288 286 286 286 285 284 283 281 281 282 283 282 281 279 279 277 276 274 272 275 274 271 268 266 264 264 265 266 266 267 269 272 272 272
287 288 291 294 293 292 292 294 293 291 287 286 286 287 285 284 283 281 280 280 280 282 281 279 278 277 278 277 275 275 275 273 268 264 263 264 266 266 267 268 269 271 272 272
289 290 292 293 293 293 293 293 293 292 287 286 286 286 285 285 283 280 278 277 279 280 279 278 277 278 278 278 278 277 275 273 270 266 263 264 266 266 268 270 273 272 272 273
291 293 294 292 292 293 292 291 291 290 289 286 286 287 286 285 283 280 277 277 279 279 278 277 276 278 278 278 278 278 276 275 271 267 266 267 268 269 271 274 275 275 275 274
290 293 294 294 293 292 292 291 290 290 290 288 286 286 285 284 283 281 277 278 280 280 279 277 277 279 279 278 277 277 278 276 273 269 267 268 268 270 272 273 273 275 277 277
291 292 293 295 293 292 293 292 290 289 289 288 286 285 284 284 283 281 279 279 281 280 280 278 278 278 279 279 279 279 279 278 275 271 268 268 268 270 273 274 274 275 276 277
291 292 293 294 294 295 296 296 295 292 289 288 287 285 283 283 283 282 281 280 280 279 279 280 279 279 281 281 280 280 279 278 276 274 270 268 268 270 271 272 273 274 275 276
290 291 291 292 293 295 296 298 298 295 293 290 287 285 283 282 282 282 281 280 279 278 278 279 280 280 281 281 280 279 279 279 277 275 272 270 270 270 270 271 272 273 274 275
291 292 292 292 292 294 296 299 298 295 294 293 289 286 284 283 282 282 281 280 279 278 278 279 279 280 281 282 281 281 280 279 279 277 273 272 271 271 270 271 272 273 274 275
290 292 292 293 293 295 297 299 299 297 295 294 290 287 284 283 284 282 281 280 279 279 278 278 279 281 282 283 283 283 282 281 281 279 277 275 274 274 273 273 273 273 274 275
289 291 293 294 293 294 297 299 299 298 297 295 291 287 284 283 283 283 281 281 281 280 279 279 279 281 283 284 285 286 286 284 283 282 280 278 277 277 277 276 275 275 275 276
289 292 293 292 292 292 294 297 298 298 297 295 293 290 287 285 283 282 280 281 281 281 280 279 280 281 283 284 285 287 288 287 284 282 282 281 280 279 279 278 277 276 276 276
287 290 292 293 292 290 291 294 295 295 295 295 294 292 290 287 285 283 281 281 282 282 281 281 282 283 283 284 286 287 288 288 287 285 284 283 283 281 281 282 279 277 276 276
287 289 291 293 293 291 291 292 294 293 293 292 292 292 290 288 287 286 284 283 283 282 281 281 282 283 283 285 286 287 287 287 287 287 286 285 284 283 282 282 281 278 276 276
287 289 291 293 293 291 290 291 291 291 292 291 292 291 290 289 289 289 287 286 284 283 282 282 283 283 284 285 286 287 286 286 286 286 287 287 286 285 284 283 282 281 279 277
289 290 291 292 292 291 289 288 289 290 292 292 291 291 290 289 289 289 288 288 287 285 284 283 284 284 285 286 287 287 287 286 286 286 286 287 287 286 285 283 283 282 280 278
288 290 291 292 292 291 289 288 288 288 290 290 290 290 290 290 287 287 288 288 288 286 285 285 285 284 285 286 287 287 287 287 287 287 287 287 287 286 286 285 283 282 281 280
287 288 289 290 291 290 289 289 289 289 288 289 290 290 290 289 286 286 287 288 288 288 288 287 287 286 286 286 287 287 287 288 288 288 287 287 287 287 286 285 284 282 280 279
287 287 287 287 288 288 288 289 289 289 289 289 290 291 291 289 287 286 287 288 289 289 290 289 289 288 288 288 288 288 287 288 288 288 288 288 287 287 287 286 285 284 281 278
288 287 287 286 287 287 287 289 289 288 289 289 290 291 291 290 289 288 289 289 289 289 290 290 290 289 289 290 290 289 288 287 287 288 287 287 287 287 286 285 284 282 279 276
285 285 284 284 286 287 288 288 288 287 287 287 289 291 291 291 291 291 291 290 289 289 290 291 292 292 292 291 291 291 289 287 287 287 287 286 286 285 284 283 282 279 276 274
282 282 282 283 285 286 286 286 286 286 286 287 288 290 291 291 291 292 292 290 289 289 290 290 292 294 293 293 294 294 293 290 289 288 287 286 285 284 282 280 278 276 274 272
Height
5644 5642 5640 5639 5637 5635 5633 5631 5629 5627 5626 5625 5622 5620 5619 5617 5615 5614 5613 5613 5612 5611 5611 5610 5610 5610 5610 5610 5610 5610 5610 5609 5609 5609 5609 5609 5610 5612 5613 5614 5615 5616 5617 5617
5640 5637 5635 5634 5632 5630 5628 5626 5624 5622 5621 5620 5618 5616 5614 5612 5611 5610 5609 5608 5607 5606 5606 5605 5604 5604 5604 5603 5603 5603 5603 5602 5602 5602 5602 5603 5604 5605 5606 5607 5608 5609 5609 5610
5633 5631 5630 5629 5628 5625 5623 5621 5619 5617 5617 5614 5613 5611 5609 5607 5606 5605 5604 5603 5602 5601 5600 5599 5598 5598 5597 5597 5597 5596 5595 5595 5595 5595 5595 5596 5597 5598 5599 5600 5600 5601 5602 5602
5626 5626 5624 5627 5622 5620 5618 5617 5614 5612 5610 5608 5607 5605 5603 5602 5601 5599 5598 5597 5596 5595 5594 5593 5592 5591 5591 5590 5590 5589 5588 5588 5588 5588 5588 5589 5590 5591 5592 5592 5593 5594 5594 5595
5619 5617 5617 5619 5616 5613 5611 5611 5609 5606 5604 5602 5600 5599 5599 5597 5595 5593 5592 5591 5590 5589 5588 5587 5586 5585 5584 5584 5583 5583 5582 5582 5581 5581 5582 5582 5583 5584 5584 5585 5586 5586 5587 5587
5613 5611 5611 5613 5610 5606 5605 5604 5603 5599 5597 5596 5594 5594 5594 5591 5589 5587 5586 5585 5584 5583 5582 5581 5580 5579 5578 5577 5577 5576 5576 5575 5575 5575 5575 5575 5576 5577 5577 5578 5579 5579 5579 5579
5607 5604 5605 5606 5603 5600 5599 5598 5595 5592 5591 5589 5588 5587 5586 5584 5583 5581 5580 5579 5578 5577 5576 5575 5574 5573 5572 5571 5570 5569 5569 5568 5568 5568 5568 5569 5569 5569 5570 5570 5571 5571 5571 5571
5600 5599 5601 5598 5596 5594 5592 5590 5588 5586 5585 5583 5582 5580 5579 5578 5576 5575 5574 5573 5572 5571 5570 5569 5568 5567 5566 5565 5564 5563 5562 5561 5561 5561 5561 5561 5562 5562 5563 5563 5563 5563 5563 5563
5596 5596 5594 5591 5589 5587 5585 5584 5582 5580 5579 5577 5576 5574 5573 5571 5570 5569 5567 5567 5566 5564 5563 5562 5561 5560 5559 5558 5557 5556 5555 5554 5553 5554 5554 5554 5554 5555 5555 5555 5555 5555 5555 5555
5589 5589 5587 5585 5582 5581 5579 5577 5575 5574 5572 5570 5569 5568 5566 5565 5563 5562 5561 5560 5559 5558 5556 5556 5555 5553 5552 5551 5550 5549 5548 5547 5546 5546 5546 5546 5546 5547 5547 5547 5547 5547 5547 5546
5583 5583 5580 5579 5577 5575 5573 5571 5569 5567 5565 5564 5562 5561 5559 5558 5556 5555 5553 5553 5551 5550 5549 5548 5547 5546 5545 5544 5543 5542 5540 5539 5538 5538 5538 5538 5538 5538 5538 5538 5538 5538 5538 5538
5578 5576 5574 5573 5571 5569 5567 5565 5563 5561 5559 5557 5555 5554 5552 5551 5549 5548 5546 5545 5544 5543 5542 5541 5540 5538 5537 5536 5534 5533 5532 5531 5530 5530 5529 5529 5529 5530 5529 5530 5529 5529 5529 5529
5571 5570 5568 5566 5565 5562 5560 5558 5556 5554 5552 5550 5548 5547 5545 5544 5542 5541 5539 5538 5537 5535 5534 5533 5532 5530 5529 5528 5526 5525 5524 5523 5522 5521 5521 5521 5521 5521 5521 5521 5521 5521 5520 5520
5565 5563 5561 5560 5558 5556 5553 5551 5549 5547 5545 5542 5540 5539 5537 5536 5534 5533 5532 5530 5529 5528 5527 5525 5524 5522 5521 5520 5519 5517 5516 5515 5514 5513 5513 5513 5512 5512 5512 5512 5512 5512 5512 5511
5558 5556 5554 5553 5551 5549 5546 5544 5542 5540 5537 5535 5532 5531 5529 5528 5526 5525 5524 5523 5521 5520 5519 5517 5516 5515 5513 5512 5511 5510 5508 5507 5506 5505 5504 5504 5504 5503 5503 5503 5503 5502 5502 5502
5551 5549 5547 5545 5543 5541 5539 5537 5535 5532 5530 5527 5525 5523 5521 5520 5518 5517 5516 5515 5513 5512 5510 5509 5508 5507 5506 5505 5503 5502 5500 5499 5498 5497 5496 5495 5495 5494 5494 5494 5493 5493 5493 5492
5543 5541 5540 5538 5536 5534 5532 5530 5527 5525 5522 5520 5517 5515 5513 5512 5510 5509 5508 5506 5505 5504 5502 5501 5500 5499 5498 5497 5496 5494 5493 5491 5490 5489 5488 5487 5486 5485 5485 5484 5484 5483 5483 5482
5535 5533 5532 5530 5528 5526 5524 5522 5519 5517 5515 5512 5510 5508 5506 5504 5503 5501 5500 5499 5497 5496 5494 5493 5492 5491 5490 5489 5488 5486 5485 5483 5482 5481 5480 5479 5477 5477 5476 5475 5474 5473 5473 5472
5527 5525 5524 5521 5519 5517 5515 5513 5511 5509 5507 5505 5503 5500 5498 5497 5495 5493 5492 5491 5489 5488 5487 5485 5484 5483 5482 5481 5479 5478 5476 5475 5474 5473 5471 5470 5469 5468 5467 5466 5465 5464 5464 5463
5519 5517 5515 5513 5511 5508 5507 5505 5503 5501 5499 5497 5495 5493 5491 5489 5487 5486 5484 5483 5481 5480 5478 5477 5476 5475 5474 5473 5471 5470 5468 5467 5466 5464 5463 5462 5460 5459 5458 5457 5456 5455 5454 5454
5510 5508 5506 5504 5502 5500 5498 5496 5494 5493 5491 5489 5487 5485 5483 5482 5480 5478 5477 5475 5474 5472 5471 5470 5468 5467 5466 5464 5463 5462 5460 5459 5457 5456 5454 5453 5452 5450 5449 5448 5447 5446 5445 5444
5501 5499 5497 5495 5493 5491 5489 5488 5486 5485 5483 5482 5480 5478 5476 5474 5472 5471 5469 5468 5466 5465 5463 5462 5461 5459 5458 5457 5455 5454 5452 5450 5449 5447 5445 5444 5443 5441 5440 5439 5438 5436 5436 5435
5492 5490 5488 5487 5485 5483 5481 5480 5478 5477 5475 5474 5472 5470 5468 5467 5465 5464 5462 5460 5458 5457 5456 5454 5453 5451 5450 5448 5447 5445 5443 5442 5440 5438 5436 5435 5433 5432 5431 5429 5428 5427 5426 5426
5483 5481 5480 5478 5476 5475 5473 5472 5470 5469 5467 5466 5464 5463 5461 5459 5457 5456 5454 5452 5451 5449 5448 5446 5444 5443 5441 5440 5438 5436 5434 5432 5431 5429 5427 5425 5424 5422 5421 5420 5419 5418 5417 5416
5474 5472 5471 5470 5468 5467 5465 5464 5462 5461 5460 5458 5457 5455 5453 5451 5450 5448 5446 5445 5443 5441 5440 5438 5436 5434 5433 5431 5429 5427 5425 5423 5421 5419 5417 5416 5414 5413 5412 5411 5409 5409 5408 5407
5465 5464 5463 5462 5460 5459 5458 5456 5455 5453 5452 5451 5449 5448 5446 5444 5442 5440 5439 5437 5435 5433 5432 5430 5428 5426 5424 5422 5420 5418 5415 5413 5411 5410 5408 5406 5405 5404 5402 5401 5400 5400 5399 5399
5457 5455 5454 5453 5452 5451 5449 5448 5447 5446 5444 5443 5442 5440 5439 5437 5435 5433 5431 5429 5427 5425 5424 5422 5420 5418 5416 5413 5411 5409 5406 5404 5402 5400 5399 5397 5396 5394 5393 5393 5392 5392 5391 5391